Location: Bieujac
(44.5398°N, 0.1549°W)
Time: 23:24:06
(UTC+00:00)

STARLINK-32 - Pass Details

Date: 17 November 2019
Orbit: 529 x 530 km, 53.0° (Epoch: 09 December)

Event Time Altitude Azimuth Distance (km) Brightness Sun altitude
Exits shadow 04:25:03 17° 157° (SSE) 1,390 5.9 -27.3°
Drops below altitude 10° 04:29:18 10° 84° (E) 1,774 7.2 -26.6°
Enters shadow 05:31:47 -60° 235° (SW) 11,767 10.3 -15.5°
Maximum altitude 06:06:00 74° 328° (NNW) 554 3.5 -9.6°
